Tillbaka till svenska Fidonet
English   Information   Debug  
FILM   0/18
FNEWS_PUBLISH   4912
FN_SYSOP   42201
FN_SYSOP_OLD1   71952
FTP_FIDO   0/2
FTSC_PUBLIC   0/13972
FUNNY   0/4886
GENEALOGY.EUR   0/71
GET_INFO   105
GOLDED   0/408
HAM   886/16648
HOLYSMOKE   0/6791
HOT_SITES   0/1
HTMLEDIT   0/71
HUB203   466
HUB_100   264
HUB_400   39
HUMOR   0/29
IC   0/2851
INTERNET   0/424
INTERUSER   0/3
IP_CONNECT   719
JAMNNTPD   0/233
JAMTLAND   0/47
KATTY_KORNER   0/41
LAN   0/16
LINUX-USER   0/19
LINUXHELP   0/1155
LINUX   0/22300
LINUX_BBS   0/957
mail   18.68
mail_fore_ok   249
MENSA   0/341
MODERATOR   0/102
MONTE   0/992
MOSCOW_OKLAHOMA   0/1245
MUFFIN   0/783
MUSIC   0/321
N203_STAT   938
N203_SYSCHAT   313
NET203   321
NET204   69
NET_DEV   0/10
NORD.ADMIN   0/101
NORD.CHAT   0/2572
NORD.FIDONET   189
NORD.HARDWARE   0/28
NORD.KULTUR   0/114
NORD.PROG   0/32
NORD.SOFTWARE   0/88
NORD.TEKNIK   0/58
NORD   0/453
OCCULT_CHAT   0/93
OS2BBS   0/787
OS2DOSBBS   0/580
OS2HW   0/42
OS2INET   0/37
OS2LAN   0/134
OS2PROG   0/36
OS2REXX   0/113
OS2USER-L   207
OS2   0/4830
OSDEBATE   0/18996
PASCAL   0/490
PERL   0/457
PHP   0/45
POINTS   0/405
POLITICS   0/29554
POL_INC   0/14731
PSION   103
R20_ADMIN   1133
R20_AMATORRADIO   0/2
R20_BEST_OF_FIDONET   16
R20_CHAT   0/896
R20_DEPP   0/3
R20_DEV   400
R20_ECHO2   1821
R20_ECHOPRES   0/35
R20_ESTAT   0/719
R20_FIDONETPROG...
...RAM.MYPOINT
  0/2
R20_FIDONETPROGRAM   0/22
R20_FIDONET   0/248
R20_FILEFIND   0/24
R20_FILEFOUND   0/22
R20_HIFI   0/3
R20_INFO2   3713
R20_INTERNET   0/12940
R20_INTRESSE   0/60
R20_INTR_KOM   0/99
R20_KANDIDAT.CHAT   42
R20_KANDIDAT   28
R20_KOM_DEV   112
R20_KONTROLL   0/13360
R20_KORSET   0/18
R20_LOKALTRAFIK   0/24
R20_MODERATOR   0/1852
R20_NC   76
R20_NET200   245
R20_NETWORK.OTH...
...ERNETS
  0/13
R20_OPERATIVSYS...
...TEM.LINUX
  0/44
R20_PROGRAMVAROR   0/1
R20_REC2NEC   534
R20_SFOSM   0/341
R20_SF   0/108
R20_SPRAK.ENGLISH   0/1
R20_SQUISH   107
R20_TEST   2
R20_WORST_OF_FIDONET   20
RAR   0/9
RA_MULTI   106
RA_UTIL   0/162
REGCON.EUR   0/2068
REGCON   0/13
SCIENCE   0/1206
SF   0/239
SHAREWARE_SUPPORT   0/5146
SHAREWRE   0/14
SIMPSONS   0/169
STATS_OLD1   0/2539.065
STATS_OLD2   0/2530
STATS_OLD3   0/2395.095
STATS_OLD4   0/1692.25
SURVIVOR   0/495
SYSOPS_CORNER   0/3
SYSOP   0/84
TAGLINES   0/112
TEAMOS2   0/4530
TECH   0/2617
TEST.444   0/105
TRAPDOOR   0/19
TREK   0/755
TUB   0/290
UFO   0/40
UNIX   0/1316
USA_EURLINK   0/102
USR_MODEMS   0/1
VATICAN   0/2740
VIETNAM_VETS   0/14
VIRUS   0/378
VIRUS_INFO   0/201
VISUAL_BASIC   0/473
WHITEHOUSE   0/5187
WIN2000   0/101
WIN32   0/30
WIN95   0/4291
WIN95_OLD1   0/70272
WINDOWS   0/1517
WWB_SYSOP   0/419
WWB_TECH   0/810
ZCC-PUBLIC   0/1
ZEC   4

 
4DOS   0/134
ABORTION   0/7
ALASKA_CHAT   0/506
ALLFIX_FILE   0/1313
ALLFIX_FILE_OLD1   0/7997
ALT_DOS   0/152
AMATEUR_RADIO   0/1039
AMIGASALE   0/14
AMIGA   0/331
AMIGA_INT   0/1
AMIGA_PROG   0/20
AMIGA_SYSOP   0/26
ANIME   0/15
ARGUS   0/924
ASCII_ART   0/340
ASIAN_LINK   0/651
ASTRONOMY   0/417
AUDIO   0/92
AUTOMOBILE_RACING   0/105
BABYLON5   0/17862
BAG   135
BATPOWER   0/361
BBBS.ENGLISH   0/382
BBSLAW   0/109
BBS_ADS   0/5290
BBS_INTERNET   0/507
BIBLE   0/3563
BINKD   0/1119
BINKLEY   0/215
BLUEWAVE   0/2173
CABLE_MODEMS   0/25
CBM   0/46
CDRECORD   0/66
CDROM   0/20
CLASSIC_COMPUTER   0/378
COMICS   0/15
CONSPRCY   0/899
COOKING   41333
COOKING_OLD1   0/24719
COOKING_OLD2   0/40862
COOKING_OLD3   0/37489
COOKING_OLD4   0/35496
COOKING_OLD5   9370
C_ECHO   0/189
C_PLUSPLUS   0/31
DIRTY_DOZEN   0/201
DOORGAMES   0/2262
DOS_INTERNET   0/196
duplikat   6102
ECHOLIST   0/18295
EC_SUPPORT   0/318
ELECTRONICS   0/359
ELEKTRONIK.GER   1534
ENET.LINGUISTIC   0/13
ENET.POLITICS   0/4
ENET.SOFT   0/11701
ENET.SYSOP   34289
ENET.TALKS   0/32
ENGLISH_TUTOR   0/2000
EVOLUTION   0/1335
FDECHO   0/217
FDN_ANNOUNCE   0/7068
FIDONEWS   25048
FIDONEWS_OLD1   0/49742
FIDONEWS_OLD2   3944/35949
FIDONEWS_OLD3   0/30874
FIDONEWS_OLD4   0/37224
FIDO_SYSOP   12922
FIDO_UTIL   0/180
FILEFIND   0/209
FILEGATE   0/212
Möte HAM, 16648 texter
 lista första sista föregående nästa
Text 288, 736 rader
Skriven 2005-03-18 00:01:27 av Amsat List (1:323/120.0)
Ärende: 
========
SB KEPS @ AMSAT  $ORB05076.O
Orbital Elements  05076.OSCAR

HR AMSAT ORBITAL ELEMENTS FOR OSCAR SATELLITES
FROM WA5QGD FORT WORTH,TX March 17, 2005
SEND SUBSCRIBE/UNSUBSCRIBE TO majordomo@amsat.org ONLY
BID: ORB05076.O
TO ALL RADIO AMATEURS BT

Satellite: AO-07
Catalog number: 07530
Epoch time:      05075.73615150
Element set:    0406
Inclination:      101.6411 deg
RA of node:       123.7629 deg
Eccentricity:    0.0012203
Arg of perigee:   054.4374 deg
Mean anomaly:     305.7835 deg
Mean motion:   12.53570909 rev/day
Decay rate:       -2.8e-07 rev/day^2
Epoch rev:           38806
Checksum:              275

Satellite: AO-10
Catalog number: 14129
Epoch time:      05074.98743598
Element set:    0159
Inclination:      027.1530 deg
RA of node:       042.0560 deg
Eccentricity:    0.6034903
Arg of perigee:   173.1234 deg
Mean anomaly:     202.2694 deg
Mean motion:   02.05866975 rev/day
Decay rate:      -2.14e-06 rev/day^2
Epoch rev:           16361
Checksum:              291

Satellite: UO-11
Catalog number: 14781
Epoch time:      05075.94263646
Element set:    0736
Inclination:      098.2002 deg
RA of node:       071.6671 deg
Eccentricity:    0.0008149
Arg of perigee:   299.3963 deg
Mean anomaly:     060.6508 deg
Mean motion:   14.79185664 rev/day
Decay rate:       3.08e-06 rev/day^2
Epoch rev:           12816
Checksum:              323

Satellite: RS-10/11
Catalog number: 18129
Epoch time:      05075.67579322
Element set:    0640
Inclination:      082.9240 deg
RA of node:       306.5726 deg
Eccentricity:    0.0010306
Arg of perigee:   288.3838 deg
Mean anomaly:     071.6201 deg
Mean motion:   13.72755553 rev/day
Decay rate:        5.6e-07 rev/day^2
Epoch rev:           88838
Checksum:              313

Satellite: FO-20
Catalog number: 20480
Epoch time:      05075.46040806
Element set:    0850
Inclination:      099.0215 deg
RA of node:       267.3153 deg
Eccentricity:    0.0540928
Arg of perigee:   089.8592 deg
Mean anomaly:     276.4457 deg
Mean motion:   12.83345501 rev/day
Decay rate:       -2.0e-07 rev/day^2
Epoch rev:           70760
Checksum:              297

Satellite: RS-12/13
Catalog number: 21089
Epoch time:      05075.71666911
Element set:    0864
Inclination:      082.9269 deg
RA of node:       339.5225 deg
Eccentricity:    0.0028948
Arg of perigee:   340.4502 deg
Mean anomaly:     019.5554 deg
Mean motion:   13.74448516 rev/day
Decay rate:        5.5e-07 rev/day^2
Epoch rev:           70779
Checksum:              336

Satellite: RS-15
Catalog number: 23439
Epoch time:      05075.89907567
Element set:    0889
Inclination:      064.8154 deg
RA of node:       256.8048 deg
Eccentricity:    0.0161491
Arg of perigee:   332.4774 deg
Mean anomaly:     026.7670 deg
Mean motion:   11.27551327 rev/day
Decay rate:       -3.9e-07 rev/day^2
Epoch rev:           42098
Checksum:              342

Satellite: FO-29
Catalog number: 24278
Epoch time:      05075.17551735
Element set:    0919
Inclination:      098.5591 deg
RA of node:       137.2569 deg
Eccentricity:    0.0351280
Arg of perigee:   057.4238 deg
Mean anomaly:     306.0302 deg
Mean motion:   13.52909639 rev/day
Decay rate:       -1.9e-07 rev/day^2
Epoch rev:           42361
Checksum:              321

Satellite: SO-33
Catalog number: 25509
Epoch time:      05075.41562987
Element set:    0324
Inclination:      031.4279 deg
RA of node:       196.9664 deg
Eccentricity:    0.0355919
Arg of perigee:   075.0230 deg
Mean anomaly:     288.9477 deg
Mean motion:   14.27970345 rev/day
Decay rate:       1.00e-06 rev/day^2
Epoch rev:           33355
Checksum:              328

Satellite: AO-40
Catalog number: 26609
Epoch time:      05072.58037499
Element set:    0512
Inclination:      008.3627 deg
RA of node:       315.4409 deg
Eccentricity:    0.7954469
Arg of perigee:   017.1171 deg
Mean anomaly:     358.9910 deg
Mean motion:   01.25587285 rev/day
Decay rate:      -3.36e-06 rev/day^2
Epoch rev:           02006
Checksum:              317

/EX
SB KEPS @ AMSAT  $ORB05076.D
Orbital Elements  05076.MICROS

HR AMSAT ORBITAL ELEMENTS FOR THE MICROSATS
FROM WA5QGD FORT WORTH,TX March 17, 2005
SEND SUBSCRIBE/UNSUBSCRIBE TO majordomo@amsat.org ONLY
BID: ORB05076.D
TO ALL RADIO AMATEURS BT

Satellite: UO-14
Catalog number: 20437
Epoch time:      05075.92332894
Element set:    0732
Inclination:      098.1979 deg
RA of node:       090.7932 deg
Eccentricity:    0.0011690
Arg of perigee:   106.6385 deg
Mean anomaly:     253.6094 deg
Mean motion:   14.31401778 rev/day
Decay rate:       -5.2e-07 rev/day^2
Epoch rev:           79083
Checksum:              320

Satellite: AO-16
Catalog number: 20439
Epoch time:      05075.66527859
Element set:    0420
Inclination:      098.2163 deg
RA of node:       105.7754 deg
Eccentricity:    0.0011767
Arg of perigee:   115.4407 deg
Mean anomaly:     244.7983 deg
Mean motion:   14.31663993 rev/day
Decay rate:        2.6e-07 rev/day^2
Epoch rev:           79085
Checksum:              328

Satellite: WO-18
Catalog number: 20441
Epoch time:      05075.74460312
Element set:    0614
Inclination:      098.2282 deg
RA of node:       110.1420 deg
Eccentricity:    0.0012586
Arg of perigee:   115.0078 deg
Mean anomaly:     245.2416 deg
Mean motion:   14.31738420 rev/day
Decay rate:        4.0e-07 rev/day^2
Epoch rev:           79092
Checksum:              258

Satellite: LO-19
Catalog number: 20442
Epoch time:      05075.70381896
Element set:    0348
Inclination:      098.2367 deg
RA of node:       114.4669 deg
Eccentricity:    0.0012730
Arg of perigee:   114.4159 deg
Mean anomaly:     245.8360 deg
Mean motion:   14.31910327 rev/day
Decay rate:        4.9e-07 rev/day^2
Epoch rev:           79098
Checksum:              316

